M I D A S
Marine Information and Data Acquisition System
Tripno 1249 of the Zeeleeuw from 2007-04-20 07:17:21 to 2007-04-20 08:00:09
Back to CruiseResearch ActivitiesStationsMapUnderway DataData graphs

EquipmentUnitsComment
TimeDGPSUTC
LatitudeDGPSDM.mWGS84
LongitudeDGPSDM.mWGS84
HeadingGyrodeg 
SOGDGPSknotsSpeed over ground
COGDGPSdegCourse over ground
DepthEcho soundermeters200 kHz
Missing or incorrect values are displayed as -999
Navigation data collected by the RV Zeeleeuw from 2007-04-20 07:18:22 to 2007-04-20 12:17:08
                                                                                    Next 1000 lines
Time Latitude Longitude Heading SOG COG Depth
2007-04-20 07:18:32 51°13.581 2°56.129 116.2 0.8 286 6.5
2007-04-20 07:18:37 51°13.582 2°56.126 116.2 1.2 291 6.4
2007-04-20 07:18:42 51°13.583 2°56.123 116.3 1.6 291 6.4
2007-04-20 07:18:47 51°13.584 2°56.119 116.9 2.1 294 6.4
2007-04-20 07:18:53 51°13.586 2°56.113 117.6 2.5 294 -999
2007-04-20 07:18:58 51°13.587 2°56.108 118.7 2.8 297 -999
2007-04-20 07:19:03 51°13.589 2°56.102 119.3 3 296 -999
2007-04-20 07:19:08 51°13.591 2°56.096 119.4 3.2 297 -999
2007-04-20 07:19:12 51°13.593 2°56.091 119.4 3.3 297 -999
2007-04-20 07:19:18 51°13.596 2°56.083 119.3 3.3 297 -999
2007-04-20 07:19:23 51°13.598 2°56.076 119.2 3.4 297 -999
2007-04-20 07:19:28 51°13.6 2°56.069 119 3.4 297 -999
2007-04-20 07:19:32 51°13.601 2°56.064 118.9 3.4 296 -999
2007-04-20 07:19:37 51°13.603 2°56.057 118.7 3.4 296 -999
2007-04-20 07:19:43 51°13.606 2°56.049 118.8 3.5 296 -999
2007-04-20 07:19:48 51°13.608 2°56.042 119 3.5 296 -999
2007-04-20 07:19:53 51°13.61 2°56.035 119.4 3.5 297 -999
2007-04-20 07:19:57 51°13.612 2°56.03 119.8 3.6 297 -999
2007-04-20 07:20:03 51°13.614 2°56.021 120.5 3.6 298 -999
2007-04-20 07:20:08 51°13.617 2°56.014 121 3.6 298 -999
2007-04-20 07:20:13 51°13.619 2°56.007 121.5 3.7 298 -999
2007-04-20 07:20:18 51°13.622 2°56 121.9 3.7 299 -999
2007-04-20 07:20:22 51°13.624 2°55.994 122.1 3.7 298 -999
2007-04-20 07:20:28 51°13.627 2°55.985 122.5 3.8 299 -999
2007-04-20 07:20:33 51°13.629 2°55.978 122.7 3.8 299 -999
2007-04-20 07:20:38 51°13.632 2°55.971 122.9 3.9 300 -999
2007-04-20 07:20:42 51°13.634 2°55.965 123 3.9 300 -999
2007-04-20 07:20:47 51°13.637 2°55.957 123 3.9 300 -999
2007-04-20 07:20:53 51°13.64 2°55.948 123 4 299 -999
2007-04-20 07:20:58 51°13.643 2°55.941 123 4 300 -999
2007-04-20 07:21:03 51°13.645 2°55.933 123 4 300 -999
2007-04-20 07:21:07 51°13.647 2°55.927 123.1 4 301 -999
2007-04-20 07:21:13 51°13.651 2°55.918 123.1 4 300 -999
2007-04-20 07:21:18 51°13.653 2°55.91 122.8 4 300 -999
2007-04-20 07:21:23 51°13.656 2°55.902 122.5 4 300 -999
2007-04-20 07:21:28 51°13.659 2°55.895 122 3.9 300 -999
2007-04-20 07:21:32 51°13.661 2°55.889 121.7 3.9 300 -999
2007-04-20 07:21:38 51°13.664 2°55.88 121.2 3.8 300 -999
2007-04-20 07:21:43 51°13.667 2°55.873 120.6 3.6 299 -999
2007-04-20 07:21:48 51°13.669 2°55.866 119.9 3.6 298 -999
2007-04-20 07:21:53 51°13.671 2°55.86 119 3.5 299 -999
2007-04-20 07:21:58 51°13.674 2°55.853 118.1 3.4 298 -999
2007-04-20 07:22:03 51°13.676 2°55.846 117.2 3.3 297 8.8
2007-04-20 07:22:07 51°13.677 2°55.841 116.1 3.2 296 8.7
2007-04-20 07:22:12 51°13.679 2°55.835 115.1 3 294 8.7
2007-04-20 07:22:17 51°13.68 2°55.829 113.8 3 294 8.7
2007-04-20 07:22:23 51°13.682 2°55.822 112.5 2.8 291 8.7
2007-04-20 07:22:28 51°13.683 2°55.817 111 2.8 290 8.8
2007-04-20 07:22:32 51°13.685 2°55.812 109.7 2.7 289 8.8
2007-04-20 07:22:37 51°13.686 2°55.806 108.4 2.6 288 8.9
2007-04-20 07:22:42 51°13.687 2°55.801 107.2 2.6 287 9.3
2007-04-20 07:22:47 51°13.688 2°55.796 106.2 2.5 286 9.5
2007-04-20 07:22:52 51°13.689 2°55.791 105.6 2.4 285 9.6
2007-04-20 07:22:57 51°13.689 2°55.786 105.2 2.3 286 10
2007-04-20 07:23:02 51°13.69 2°55.781 104.9 2.2 284 10.5
2007-04-20 07:23:07 51°13.691 2°55.776 104.6 2.1 285 10.8
2007-04-20 07:23:12 51°13.692 2°55.772 104.2 2 284 11
2007-04-20 07:23:17 51°13.692 2°55.768 103.7 1.9 284 11.1
2007-04-20 07:23:22 51°13.693 2°55.764 103.5 1.7 278 10.6
2007-04-20 07:23:27 51°13.693 2°55.761 103 1.5 284 11
2007-04-20 07:23:33 51°13.694 2°55.758 102.5 1.2 282 11.3
2007-04-20 07:23:37 51°13.694 2°55.756 101.2 1.1 282 11.3
2007-04-20 07:23:43 51°13.694 2°55.753 99.6 0.9 281 11.2
2007-04-20 07:23:47 51°13.694 2°55.752 97.1 0.8 280 11.3
2007-04-20 07:23:52 51°13.695 2°55.75 95 0.8 280 11.4
2007-04-20 07:23:58 51°13.695 2°55.748 93.2 0.7 281 11.6
2007-04-20 07:24:03 51°13.695 2°55.747 91.7 0.5 286 11.4
2007-04-20 07:24:07 51°13.695 2°55.747 90.3 0.2 317 11.4
2007-04-20 07:24:12 51°13.696 2°55.747 88.4 0.2 32 11.4
2007-04-20 07:24:17 51°13.696 2°55.748 85.4 0.4 43 11.4
2007-04-20 07:24:23 51°13.697 2°55.749 82.4 0.7 55 11.6
2007-04-20 07:24:28 51°13.697 2°55.751 77.1 0.8 56 11.7
2007-04-20 07:24:32 51°13.698 2°55.752 72.3 1 53 11.8
2007-04-20 07:24:37 51°13.699 2°55.754 68.2 1.3 47 11.8
2007-04-20 07:24:43 51°13.701 2°55.757 61.9 1.4 46 12.2
2007-04-20 07:24:47 51°13.702 2°55.758 56.6 1.4 38 12.4
2007-04-20 07:24:52 51°13.703 2°55.76 52.5 1.3 38 12.6
2007-04-20 07:24:57 51°13.705 2°55.762 48.3 1.1 31 12.7
2007-04-20 07:25:02 51°13.706 2°55.763 46.4 0.9 29 12.4
2007-04-20 07:25:07 51°13.707 2°55.763 43.6 0.5 13 12.4
2007-04-20 07:25:12 51°13.707 2°55.763 41.2 0.3 350 12.3
2007-04-20 07:25:17 51°13.707 2°55.763 38.8 0.2 273 12.4
2007-04-20 07:25:22 51°13.706 2°55.762 37.2 0.5 234 12.4
2007-04-20 07:25:27 51°13.706 2°55.761 35.8 0.8 228 12.5
2007-04-20 07:25:32 51°13.705 2°55.76 34.6 1 219 12.4
2007-04-20 07:25:37 51°13.703 2°55.758 33.8 1.3 217 12.7
2007-04-20 07:25:42 51°13.702 2°55.756 33 1.5 217 12.4
2007-04-20 07:25:48 51°13.699 2°55.753 32 1.8 218 -999
2007-04-20 07:25:52 51°13.698 2°55.751 30.7 1.8 214 -999
2007-04-20 07:25:58 51°13.695 2°55.749 29.6 1.7 214 -999
2007-04-20 07:26:03 51°13.694 2°55.747 29 1.6 215 -999
2007-04-20 07:26:08 51°13.692 2°55.745 28.1 1.2 218 -999
2007-04-20 07:26:12 51°13.692 2°55.744 26.6 0.7 226 -999
2007-04-20 07:26:18 51°13.691 2°55.743 23.5 0.5 245 -999
2007-04-20 07:26:23 51°13.691 2°55.742 19.4 0.3 277 -999
2007-04-20 07:26:28 51°13.692 2°55.741 14.8 0.4 307 -999
2007-04-20 07:26:33 51°13.692 2°55.741 10.4 0.4 321 -999
2007-04-20 07:26:37 51°13.693 2°55.74 6.2 0.6 319 -999
2007-04-20 07:26:43 51°13.694 2°55.739 2 0.7 333 -999
2007-04-20 07:26:48 51°13.695 2°55.738 357.9 1 331 -999
2007-04-20 07:26:53 51°13.696 2°55.737 353.7 1.1 334 -999
2007-04-20 07:26:58 51°13.698 2°55.736 349.5 1.2 331 -999
2007-04-20 07:27:03 51°13.7 2°55.734 345.5 1.4 332 -999
2007-04-20 07:27:08 51°13.702 2°55.732 342 1.7 329 -999
2007-04-20 07:27:13 51°13.704 2°55.73 339.4 2 329 -999
2007-04-20 07:27:17 51°13.707 2°55.727 338.1 2.5 328 11
2007-04-20 07:27:22 51°13.71 2°55.724 337.1 2.9 329 10.8
2007-04-20 07:27:28 51°13.715 2°55.719 336.7 3.3 329 10.6
2007-04-20 07:27:32 51°13.719 2°55.716 336.7 3.7 331 10.6
2007-04-20 07:27:37 51°13.723 2°55.712 337.1 4 331 10.5
2007-04-20 07:27:42 51°13.729 2°55.707 337.9 4.3 333 10
2007-04-20 07:27:47 51°13.734 2°55.703 338.9 4.5 333 10.2
2007-04-20 07:27:52 51°13.74 2°55.699 339.4 4.8 334 10
2007-04-20 07:27:57 51°13.747 2°55.694 339.5 5.1 334 10.2
2007-04-20 07:28:03 51°13.755 2°55.688 339.6 5.3 334 10.3
2007-04-20 07:28:07 51°13.76 2°55.684 339.6 5.5 336 10
2007-04-20 07:28:12 51°13.768 2°55.679 340 5.7 336 9.6
2007-04-20 07:28:17 51°13.775 2°55.673 340.3 5.8 336 9.6
2007-04-20 07:28:23 51°13.784 2°55.667 340.4 5.9 336 9.5
2007-04-20 07:28:27 51°13.791 2°55.663 340.4 5.9 336 9.6
2007-04-20 07:28:32 51°13.798 2°55.658 340.4 6 337 9.6
2007-04-20 07:28:37 51°13.806 2°55.653 340.8 6 337 9.4
2007-04-20 07:28:43 51°13.814 2°55.646 340.9 5.9 337 9.4
2007-04-20 07:28:47 51°13.82 2°55.642 341.1 5.9 337 9.4
2007-04-20 07:28:52 51°13.827 2°55.636 341.1 5.9 337 9.4
2007-04-20 07:28:57 51°13.834 2°55.63 341.1 5.9 336 9.3
2007-04-20 07:29:03 51°13.843 2°55.623 341.1 6 336 9.2
2007-04-20 07:29:07 51°13.848 2°55.617 340.8 6 336 9.2
2007-04-20 07:29:12 51°13.856 2°55.612 340.7 6 335 9.2
2007-04-20 07:29:18 51°13.865 2°55.605 340.4 6 333 -999
2007-04-20 07:29:22 51°13.871 2°55.601 339.8 5.9 332 9.2
2007-04-20 07:29:27 51°13.882 2°55.597 339.5 6.4 334 9.1
2007-04-20 07:29:32 51°13.89 2°55.592 339.4 6.6 334 -999
2007-04-20 07:29:37 51°13.899 2°55.585 339.5 6.8 334 -999
2007-04-20 07:29:42 51°13.907 2°55.578 339.5 6.9 334 9.2
2007-04-20 07:29:48 51°13.918 2°55.57 339.1 7.2 333 9.2
2007-04-20 07:29:53 51°13.928 2°55.563 338.9 7.6 334 9.4
2007-04-20 07:29:57 51°13.935 2°55.556 339.3 7.9 334 9.5
2007-04-20 07:30:03 51°13.947 2°55.547 339.8 8.2 336 9.7
2007-04-20 07:30:07 51°13.956 2°55.541 340.2 8.5 335 9.7
2007-04-20 07:30:13 51°13.969 2°55.531 340.5 8.8 337 -999
2007-04-20 07:30:18 51°13.98 2°55.523 341.3 9 336 -999
2007-04-20 07:30:23 51°13.992 2°55.515 341.4 9.2 337 -999
2007-04-20 07:30:27 51°14.002 2°55.509 342 9.3 338 -999
2007-04-20 07:30:33 51°14.016 2°55.5 342.2 9.4 336 10.1
2007-04-20 07:30:37 51°14.025 2°55.493 341.7 9.4 337 9.9
2007-04-20 07:30:43 51°14.04 2°55.483 341.6 9.4 336 9.7
2007-04-20 07:30:47 51°14.049 2°55.476 341.6 9.5 336 9.9
2007-04-20 07:30:52 51°14.061 2°55.467 340.8 9.6 335 10
2007-04-20 07:30:58 51°14.076 2°55.457 340.2 9.7 336 10
2007-04-20 07:31:03 51°14.088 2°55.448 340.4 9.8 336 10.2
2007-04-20 07:31:08 51°14.1 2°55.438 340.4 9.8 334 -999
2007-04-20 07:31:13 51°14.113 2°55.429 339.6 9.9 335 -999
2007-04-20 07:31:18 51°14.125 2°55.42 339.5 9.9 335 -999
2007-04-20 07:31:23 51°14.137 2°55.41 339.1 10 334 -999
2007-04-20 07:31:28 51°14.149 2°55.4 337.9 10 332 -999
2007-04-20 07:31:33 51°14.161 2°55.388 336 9.9 330 -999
2007-04-20 07:31:38 51°14.173 2°55.377 334.8 10 328 -999
2007-04-20 07:31:42 51°14.182 2°55.366 331.9 10.1 325 -999
2007-04-20 07:31:48 51°14.195 2°55.35 329.4 10.1 323 -999
2007-04-20 07:31:53 51°14.206 2°55.336 328 10.1 321 -999
2007-04-20 07:31:58 51°14.217 2°55.321 325.6 10.2 319 10.7
2007-04-20 07:32:03 51°14.227 2°55.307 324 10.1 319 -999
2007-04-20 07:32:07 51°14.235 2°55.294 323.3 10.2 317 10.5
2007-04-20 07:32:12 51°14.246 2°55.279 322.2 10.3 316 10.2
2007-04-20 07:32:17 51°14.256 2°55.263 320.8 10.3 314 9.9
2007-04-20 07:32:22 51°14.266 2°55.246 319.5 10.3 313 10
2007-04-20 07:32:27 51°14.275 2°55.229 318.7 10.4 312 9.7
2007-04-20 07:32:33 51°14.286 2°55.208 317.9 10.5 311 10
2007-04-20 07:32:37 51°14.294 2°55.193 316.1 10.5 310 9.9
2007-04-20 07:32:43 51°14.305 2°55.172 315 10.5 310 9.9
2007-04-20 07:32:47 51°14.312 2°55.158 314.9 10.6 309 9.9
2007-04-20 07:32:52 51°14.322 2°55.14 314.3 10.6 309 10
2007-04-20 07:32:58 51°14.333 2°55.118 314 10.7 308 9.7
2007-04-20 07:33:03 51°14.341 2°55.099 313.5 10.7 307 9.6
2007-04-20 07:33:07 51°14.348 2°55.083 312.6 10.7 304 9.5
2007-04-20 07:33:12 51°14.356 2°55.063 310.5 10.7 301 9.6
2007-04-20 07:33:17 51°14.363 2°55.042 307.4 10.8 298 9.3
2007-04-20 07:33:23 51°14.37 2°55.016 304 10.7 294 9
2007-04-20 07:33:27 51°14.374 2°54.998 300.6 10.9 291 9
2007-04-20 07:33:32 51°14.379 2°54.975 297.5 11 289 8.7
2007-04-20 07:33:37 51°14.383 2°54.952 294.4 11.1 286 8.5
2007-04-20 07:33:43 51°14.388 2°54.923 291.7 11.1 284 8.7
2007-04-20 07:33:48 51°14.391 2°54.899 290 11.2 282 8.8
2007-04-20 07:33:52 51°14.393 2°54.88 288.8 11.2 280 9.3
2007-04-20 07:33:57 51°14.396 2°54.855 287.3 11.2 278 9.4
2007-04-20 07:34:02 51°14.397 2°54.831 285.7 11.3 276 9.2
2007-04-20 07:34:07 51°14.398 2°54.806 283 11.4 273 10
2007-04-20 07:34:12 51°14.399 2°54.781 280.7 11.4 273 8.9
2007-04-20 07:34:17 51°14.4 2°54.755 279.5 11.5 272 9.4
2007-04-20 07:34:22 51°14.4 2°54.73 278.7 11.5 271 9.4
2007-04-20 07:34:27 51°14.4 2°54.704 277.9 11.7 271 9.8
2007-04-20 07:34:32 51°14.4 2°54.678 277.3 11.7 270 9.3
2007-04-20 07:34:37 51°14.4 2°54.653 276.9 11.7 269 9.7
2007-04-20 07:34:42 51°14.399 2°54.627 276 11.7 268 9
2007-04-20 07:34:47 51°14.398 2°54.601 274.6 11.8 264 9.6
2007-04-20 07:34:53 51°14.395 2°54.57 271.9 11.7 263 8.7
2007-04-20 07:34:57 51°14.393 2°54.55 269.6 11.8 260 10.2
2007-04-20 07:35:03 51°14.389 2°54.519 267.1 11.8 259 8.8
2007-04-20 07:35:07 51°14.386 2°54.499 264.7 11.8 256 8.2
2007-04-20 07:35:12 51°14.382 2°54.473 262.6 11.8 255 8
2007-04-20 07:35:17 51°14.377 2°54.448 261.2 11.9 254 8
2007-04-20 07:35:23 51°14.37 2°54.419 259.6 11.9 249 7.9
2007-04-20 07:35:27 51°14.365 2°54.399 256.4 12 248 8
2007-04-20 07:35:32 51°14.358 2°54.375 253.7 12 245 7.7
2007-04-20 07:35:37 51°14.351 2°54.351 250.8 12 245 7.7
2007-04-20 07:35:43 51°14.342 2°54.323 248.6 12 243 7.7
2007-04-20 07:35:48 51°14.334 2°54.3 247.4 12.1 242 7.6
2007-04-20 07:35:52 51°14.328 2°54.281 246.2 12.1 242 7.6
2007-04-20 07:35:57 51°14.32 2°54.257 246.1 12.1 241 7.6
2007-04-20 07:36:03 51°14.31 2°54.229 246 12.1 242 7.6
2007-04-20 07:36:08 51°14.302 2°54.205 245.7 12.1 242 7.5
2007-04-20 07:36:12 51°14.296 2°54.186 246.2 12.1 242 7.5
2007-04-20 07:36:17 51°14.288 2°54.162 246.3 12.2 243 7.4
2007-04-20 07:36:22 51°14.28 2°54.138 246.4 12.1 242 7.4
2007-04-20 07:36:28 51°14.271 2°54.11 246.5 12.1 242 7.4
2007-04-20 07:36:33 51°14.263 2°54.086 246.5 12.2 242 7.5
2007-04-20 07:36:37 51°14.257 2°54.067 246.8 12.2 242 7.4
2007-04-20 07:36:43 51°14.247 2°54.039 246.1 12.2 240 7.4
2007-04-20 07:36:47 51°14.24 2°54.02 245 12.2 241 7.4
2007-04-20 07:36:52 51°14.231 2°53.997 244.6 12.2 238 5.5
2007-04-20 07:36:57 51°14.223 2°53.973 243.4 12.2 240 7.4
2007-04-20 07:37:02 51°14.214 2°53.951 243.3 12.3 238 7.4
2007-04-20 07:37:07 51°14.205 2°53.928 241.7 12.2 239 7.4
2007-04-20 07:37:13 51°14.194 2°53.9 241.8 12.2 237 5.6
2007-04-20 07:37:17 51°14.187 2°53.882 241.5 12.3 238 7.5
2007-04-20 07:37:23 51°14.175 2°53.855 241.1 12.3 236 7.5
2007-04-20 07:37:27 51°14.168 2°53.836 240.8 12.3 237 7.5
2007-04-20 07:37:32 51°14.159 2°53.814 239.8 12.3 236 7.5
2007-04-20 07:37:37 51°14.15 2°53.79 239.5 12.2 238 7.5
2007-04-20 07:37:43 51°14.139 2°53.764 241.5 11.8 236 7.6
2007-04-20 07:37:47 51°14.133 2°53.747 241 11.3 240 7.6
2007-04-20 07:37:52 51°14.124 2°53.726 242.6 11 237 7.6
2007-04-20 07:37:57 51°14.117 2°53.706 242.4 10.6 241 7.6
2007-04-20 07:38:03 51°14.109 2°53.683 243.5 10 238 7.6
2007-04-20 07:38:07 51°14.104 2°53.668 243.8 9.6 243 7.8
2007-04-20 07:38:12 51°14.098 2°53.65 245.9 9.2 241 7.8
2007-04-20 07:38:17 51°14.093 2°53.632 247.2 8.9 245 7.8
2007-04-20 07:38:22 51°14.087 2°53.615 249.4 8.5 245 7.9
2007-04-20 07:38:28 51°14.082 2°53.595 251.6 8.2 248 7.9
2007-04-20 07:38:32 51°14.079 2°53.582 253.4 7.8 247 7.9
2007-04-20 07:38:37 51°14.075 2°53.566 254.6 7.5 248 7.9
2007-04-20 07:38:42 51°14.071 2°53.551 255 7.3 248 7.9
2007-04-20 07:38:48 51°14.067 2°53.534 255.7 7 248 8
2007-04-20 07:38:52 51°14.064 2°53.523 256 6.8 247 8
2007-04-20 07:38:57 51°14.06 2°53.509 256 6.7 247 7.9
2007-04-20 07:39:03 51°14.056 2°53.493 255.7 6.4 247 8
2007-04-20 07:39:07 51°14.053 2°53.483 254.6 6.3 245 7.9
2007-04-20 07:39:12 51°14.049 2°53.471 252.9 6.1 244 8
2007-04-20 07:39:17 51°14.045 2°53.46 251 6 241 8
2007-04-20 07:39:22 51°14.041 2°53.448 249 5.9 241 8
2007-04-20 07:39:27 51°14.037 2°53.437 246.9 5.8 239 8
2007-04-20 07:39:32 51°14.033 2°53.427 245.7 5.7 239 8
2007-04-20 07:39:37 51°14.029 2°53.416 243.6 5.6 235 8.1
2007-04-20 07:39:43 51°14.024 2°53.404 242.1 5.6 237 8.1
2007-04-20 07:39:47 51°14.02 2°53.396 241.1 5.5 236 8.1
2007-04-20 07:39:52 51°14.016 2°53.387 239.8 5.4 235 8
2007-04-20 07:39:58 51°14.01 2°53.375 238.4 5.4 233 8.1
2007-04-20 07:40:03 51°14.006 2°53.366 237.3 5.3 234 8.1
2007-04-20 07:40:07 51°14.002 2°53.359 236.2 5.2 231 8.1
2007-04-20 07:40:12 51°13.998 2°53.35 235.7 5.2 233 8.1
2007-04-20 07:40:17 51°13.993 2°53.341 235.5 5.1 230 8.1
2007-04-20 07:40:23 51°13.988 2°53.33 235.1 5.1 233 8.1
2007-04-20 07:40:28 51°13.984 2°53.322 235.1 5 231 8.1
2007-04-20 07:40:32 51°13.98 2°53.315 234.7 5 232 8.2
2007-04-20 07:40:37 51°13.976 2°53.306 234.4 4.9 230 8.2
2007-04-20 07:40:42 51°13.972 2°53.298 233.7 4.9 232 8.1
2007-04-20 07:40:48 51°13.966 2°53.288 233.6 4.9 229 8.1
2007-04-20 07:40:52 51°13.963 2°53.281 233 4.8 231 8.1
2007-04-20 07:40:57 51°13.959 2°53.273 232.7 4.8 230 8.2
2007-04-20 07:41:03 51°13.954 2°53.264 232.3 4.8 231 8.1
2007-04-20 07:41:07 51°13.95 2°53.257 232.2 4.7 230 8.2
2007-04-20 07:41:12 51°13.946 2°53.249 232.4 4.7 231 8.2
2007-04-20 07:41:17 51°13.942 2°53.241 232.4 4.7 229 8.2
2007-04-20 07:41:22 51°13.938 2°53.233 232.6 4.7 231 8.1
2007-04-20 07:41:27 51°13.934 2°53.225 232.9 4.6 232 8.2
2007-04-20 07:41:32 51°13.93 2°53.217 233 4.6 231 8.2
2007-04-20 07:41:37 51°13.926 2°53.21 233.3 4.6 231 8.2
2007-04-20 07:41:42 51°13.922 2°53.202 233.5 4.6 231 8.2
2007-04-20 07:41:47 51°13.918 2°53.194 233.5 4.6 231 8.2
2007-04-20 07:41:53 51°13.913 2°53.185 233.8 4.6 231 8.2
2007-04-20 07:41:57 51°13.91 2°53.178 234 4.5 231 8.2
2007-04-20 07:42:03 51°13.905 2°53.169 234.4 4.6 231 8.2
2007-04-20 07:42:07 51°13.902 2°53.163 234.4 4.5 232 8.2
2007-04-20 07:42:12 51°13.898 2°53.155 235.1 4.5 231 8.2
2007-04-20 07:42:17 51°13.894 2°53.147 235.4 4.5 233 8.2
2007-04-20 07:42:23 51°13.89 2°53.138 235.9 4.5 233 8.1
2007-04-20 07:42:27 51°13.887 2°53.131 236.5 4.5 233 8.2
2007-04-20 07:42:32 51°13.883 2°53.124 236.7 4.5 233 8.2
2007-04-20 07:42:37 51°13.88 2°53.116 237.4 4.4 234 8.2
2007-04-20 07:42:43 51°13.875 2°53.106 237.7 4.4 233 8.2
2007-04-20 07:42:48 51°13.872 2°53.098 238.1 4.4 235 8.2
2007-04-20 07:42:52 51°13.869 2°53.092 238.5 4.4 235 8.2
2007-04-20 07:42:57 51°13.865 2°53.084 238.7 4.4 235 8.2
2007-04-20 07:43:02 51°13.862 2°53.076 238.7 4.4 234 8.2
2007-04-20 07:43:07 51°13.858 2°53.068 238.8 4.4 235 8.2
2007-04-20 07:43:12 51°13.855 2°53.06 238.7 4.4 236 8.2
2007-04-20 07:43:17 51°13.851 2°53.052 238.8 4.4 234 8.2
2007-04-20 07:43:22 51°13.848 2°53.044 239 4.4 235 8.3
2007-04-20 07:43:27 51°13.844 2°53.036 239.2 4.4 235 8.3
2007-04-20 07:43:32 51°13.841 2°53.029 239.1 4.4 235 8.3
2007-04-20 07:43:37 51°13.837 2°53.021 239 4.4 233 8.2
2007-04-20 07:43:42 51°13.834 2°53.013 238.8 4.4 234 8.2
2007-04-20 07:43:47 51°13.83 2°53.005 238.7 4.4 234 8.3
2007-04-20 07:43:53 51°13.826 2°52.996 238.5 4.3 236 8.3
2007-04-20 07:43:57 51°13.823 2°52.99 238.5 4.3 233 8.3
2007-04-20 07:44:03 51°13.819 2°52.98 238.3 4.3 234 8.3
2007-04-20 07:44:07 51°13.816 2°52.974 238.1 4.3 234 8.2
2007-04-20 07:44:12 51°13.812 2°52.966 237.7 4.3 233 8.3
2007-04-20 07:44:18 51°13.808 2°52.957 237.3 4.3 233 8.3
2007-04-20 07:44:23 51°13.805 2°52.95 237.1 4.3 234 8.3
2007-04-20 07:44:27 51°13.802 2°52.943 236.8 4.3 234 8.3
2007-04-20 07:44:32 51°13.798 2°52.936 236.6 4.3 233 8.3
2007-04-20 07:44:37 51°13.795 2°52.928 236.5 4.3 234 8.3
2007-04-20 07:44:43 51°13.79 2°52.919 236.3 4.3 233 8.3
2007-04-20 07:44:48 51°13.787 2°52.911 236.4 4.3 234 8.3
2007-04-20 07:44:52 51°13.784 2°52.905 236.2 4.2 231 8.3
2007-04-20 07:44:57 51°13.78 2°52.898 236.4 4.3 234 8.3
2007-04-20 07:45:03 51°13.776 2°52.889 236.3 4.3 233 8.3
2007-04-20 07:45:07 51°13.773 2°52.883 236.3 4.3 231 8.2
2007-04-20 07:45:12 51°13.77 2°52.875 236.2 4.3 233 8.3
2007-04-20 07:45:17 51°13.766 2°52.868 236.4 4.3 233 8.3
2007-04-20 07:45:22 51°13.762 2°52.86 236.3 4.3 235 8.2
2007-04-20 07:45:28 51°13.758 2°52.851 236.4 4.2 231 8.3
2007-04-20 07:45:32 51°13.755 2°52.845 236.5 4.3 234 8.3
2007-04-20 07:45:37 51°13.752 2°52.838 236.7 4.3 233 8.3
2007-04-20 07:45:42 51°13.748 2°52.83 236.4 4.3 234 8.3
2007-04-20 07:45:47 51°13.744 2°52.823 236.2 4.3 231 8.3
2007-04-20 07:45:52 51°13.741 2°52.815 235.8 4.2 232 8.3
2007-04-20 07:45:57 51°13.737 2°52.808 235.8 4.3 232 8.3
2007-04-20 07:46:02 51°13.734 2°52.8 235.6 4.3 232 8.3
2007-04-20 07:46:07 51°13.73 2°52.793 235.1 4.2 232 8.3
2007-04-20 07:46:12 51°13.726 2°52.786 235.1 4.2 231 8.3
2007-04-20 07:46:17 51°13.722 2°52.779 234.7 4.2 230 8.4
2007-04-20 07:46:23 51°13.718 2°52.77 234.6 4.2 231 8.3
2007-04-20 07:46:27 51°13.715 2°52.764 234.3 4.3 231 8.3
2007-04-20 07:46:32 51°13.711 2°52.757 233.8 4.3 231 8.3
2007-04-20 07:46:37 51°13.707 2°52.749 233.6 4.3 231 8.3
2007-04-20 07:46:43 51°13.703 2°52.74 233.2 4.3 231 8.3
2007-04-20 07:46:47 51°13.7 2°52.735 232.9 4.3 230 8.2
2007-04-20 07:46:52 51°13.696 2°52.728 232.4 4.3 230 8.3
2007-04-20 07:46:57 51°13.692 2°52.721 232.2 4.3 229 8.3
2007-04-20 07:47:03 51°13.687 2°52.712 231.8 4.3 229 8.3
2007-04-20 07:47:07 51°13.684 2°52.706 231.5 4.3 231 8.2
2007-04-20 07:47:12 51°13.681 2°52.699 230.9 4.2 228 8.2
2007-04-20 07:47:17 51°13.677 2°52.692 230.8 4.3 230 8.3
2007-04-20 07:47:22 51°13.673 2°52.685 230.3 4.2 228 8.3
2007-04-20 07:47:27 51°13.669 2°52.678 230.3 4.3 229 8.3
2007-04-20 07:47:32 51°13.665 2°52.671 230 4.2 228 8.4
2007-04-20 07:47:37 51°13.661 2°52.664 229.9 4.3 229 8.3
2007-04-20 07:47:42 51°13.657 2°52.657 229.4 4.3 228 8.3
2007-04-20 07:47:48 51°13.653 2°52.649 229.2 4.3 229 8.3
2007-04-20 07:47:52 51°13.649 2°52.644 228.6 4.4 229 8.3
2007-04-20 07:47:57 51°13.645 2°52.637 228.3 4.6 231 8.3
2007-04-20 07:48:02 51°13.641 2°52.629 228.6 4.9 231 8.3
2007-04-20 07:48:07 51°13.637 2°52.619 230.7 5.1 237 8.3
2007-04-20 07:48:13 51°13.633 2°52.607 235.9 5.3 239 8.3
2007-04-20 07:48:17 51°13.63 2°52.598 242 5.4 247 8.3
2007-04-20 07:48:23 51°13.627 2°52.585 249.1 5.5 249 8.3
2007-04-20 07:48:27 51°13.626 2°52.575 256 5.5 255 8.3
2007-04-20 07:48:33 51°13.624 2°52.56 262.9 5.6 260 8.3
2007-04-20 07:48:37 51°13.623 2°52.551 270.1 5.5 265 8.3
2007-04-20 07:48:43 51°13.624 2°52.536 277 5.5 270 8.3
2007-04-20 07:48:47 51°13.624 2°52.526 283.4 5.4 276 8.4
2007-04-20 07:48:52 51°13.626 2°52.514 290.4 5.3 281 8.6
2007-04-20 07:48:57 51°13.628 2°52.503 297.4 5.2 286 8.4
2007-04-20 07:49:03 51°13.631 2°52.49 304.1 5.1 293 8.4
2007-04-20 07:49:07 51°13.634 2°52.482 310.6 5 297 8.5
2007-04-20 07:49:12 51°13.638 2°52.473 317.2 4.8 303 8.4
2007-04-20 07:49:18 51°13.643 2°52.463 323.6 4.7 309 8.4
2007-04-20 07:49:23 51°13.647 2°52.456 330.1 4.5 315 8.5
2007-04-20 07:49:27 51°13.65 2°52.451 336.2 4.3 320 8.5
2007-04-20 07:49:32 51°13.655 2°52.446 342.5 4.2 327 8.6
2007-04-20 07:49:37 51°13.661 2°52.441 348.6 4.3 335 8.6
2007-04-20 07:49:43 51°13.667 2°52.438 355.3 4.1 345 8.6
2007-04-20 07:49:48 51°13.673 2°52.437 2.6 4.2 355 8.7
2007-04-20 07:49:52 51°13.678 2°52.438 10.3 4.2 7 8.8
2007-04-20 07:49:57 51°13.683 2°52.441 18.5 4.2 18 8.7
2007-04-20 07:50:02 51°13.688 2°52.445 27.1 4.2 31 8.7
2007-04-20 07:50:08 51°13.693 2°52.453 35.9 4.2 44 8.7
2007-04-20 07:50:12 51°13.696 2°52.459 44.9 4.6 52 8.7
2007-04-20 07:50:17 51°13.7 2°52.469 53.9 5.2 60 8.7
2007-04-20 07:50:22 51°13.704 2°52.48 60.7 6.1 60 8.7
2007-04-20 07:50:27 51°13.709 2°52.493 63.1 6.8 60 8.7
2007-04-20 07:50:33 51°13.715 2°52.511 62.6 7.7 59 8.5
2007-04-20 07:50:37 51°13.72 2°52.523 61.9 8.4 59 8.5
2007-04-20 07:50:43 51°13.727 2°52.544 62.4 9 60 8.5
2007-04-20 07:50:47 51°13.733 2°52.558 63.1 9.5 58 8.5
2007-04-20 07:50:52 51°13.74 2°52.577 62.3 9.9 57 8.6
2007-04-20 07:50:57 51°13.748 2°52.596 60.9 10.3 58 8.4
2007-04-20 07:51:03 51°13.757 2°52.619 60.9 10.5 58 8.4
2007-04-20 07:51:07 51°13.763 2°52.636 62 10.7 59 8.4
2007-04-20 07:51:12 51°13.771 2°52.656 62.4 10.8 59 8.3
2007-04-20 07:51:17 51°13.779 2°52.676 62.5 10.9 58 8.3
2007-04-20 07:51:23 51°13.789 2°52.702 62.3 11.1 60 8.3
2007-04-20 07:51:27 51°13.795 2°52.718 63.1 11.1 58 8.2
2007-04-20 07:51:32 51°13.803 2°52.739 63.1 11.2 58 8.3
2007-04-20 07:51:38 51°13.813 2°52.764 62.4 11.2 57 8.3
2007-04-20 07:51:43 51°13.822 2°52.785 62 11.3 57 8.2
2007-04-20 07:51:47 51°13.829 2°52.802 61.2 11.3 56 8.2
2007-04-20 07:51:52 51°13.838 2°52.823 60.6 11.4 56 8.2
2007-04-20 07:51:57 51°13.847 2°52.844 60.2 11.4 55 8.2
2007-04-20 07:52:03 51°13.858 2°52.869 60.1 11.4 57 8.2
2007-04-20 07:52:08 51°13.866 2°52.89 60.6 11.5 58 8.2
2007-04-20 07:52:12 51°13.873 2°52.908 61.7 11.5 58 8.1
2007-04-20 07:52:17 51°13.881 2°52.93 62.2 11.5 60 8.1
2007-04-20 07:52:22 51°13.889 2°52.952 63.2 11.5 60 8.4
2007-04-20 07:52:28 51°13.898 2°52.979 64 11.5 61 8.3
2007-04-20 07:52:33 51°13.905 2°53.001 64.7 11.6 62 8.1
2007-04-20 07:52:37 51°13.912 2°53.019 65.3 11.5 60 8
2007-04-20 07:52:43 51°13.921 2°53.046 64.7 11.5 60 8
2007-04-20 07:52:48 51°13.93 2°53.067 64.3 11.5 59 7.9
2007-04-20 07:52:52 51°13.936 2°53.085 63.2 11.6 59 8
2007-04-20 07:52:57 51°13.945 2°53.107 62.9 11.6 60 7.9
2007-04-20 07:53:03 51°13.954 2°53.134 63.3 11.6 62 7.9
2007-04-20 07:53:07 51°13.959 2°53.152 65.3 11.5 63 7.9
2007-04-20 07:53:12 51°13.967 2°53.175 66.4 11.6 63 7.9
2007-04-20 07:53:17 51°13.974 2°53.197 66.1 11.4 61 7.7
2007-04-20 07:53:23 51°13.984 2°53.224 66.4 11.6 61 7.8
2007-04-20 07:53:27 51°13.99 2°53.242 64.8 11.5 62 7.8
2007-04-20 07:53:32 51°13.997 2°53.264 65.8 11.4 61 7.7
2007-04-20 07:53:38 51°14.007 2°53.291 65.2 11.7 62 7.7
2007-04-20 07:53:43 51°14.014 2°53.314 64.5 11.6 63 7.6
2007-04-20 07:53:47 51°14.019 2°53.332 66.2 11.5 64 7.6
2007-04-20 07:53:52 51°14.027 2°53.355 67.4 11.5 63 7.7
2007-04-20 07:53:57 51°14.033 2°53.378 66.2 11.7 65 7.7
2007-04-20 07:54:03 51°14.042 2°53.406 67.9 11.7 65 7.5
2007-04-20 07:54:08 51°14.048 2°53.43 68.9 11.6 66 7.6
2007-04-20 07:54:12 51°14.053 2°53.449 68.9 11.6 69 7.5
2007-04-20 07:54:17 51°14.058 2°53.473 71.1 11.5 69 7.4
2007-04-20 07:54:23 51°14.065 2°53.501 71.4 11.5 69 7.5
2007-04-20 07:54:28 51°14.071 2°53.525 72 11.5 69 7.5
2007-04-20 07:54:32 51°14.076 2°53.544 72.1 11.6 66 7.5
2007-04-20 07:54:37 51°14.083 2°53.567 70.7 11.6 63 5.6
2007-04-20 07:54:42 51°14.09 2°53.589 68.5 11.6 63 7.4
2007-04-20 07:54:48 51°14.1 2°53.616 66.9 11.6 60 7.3
2007-04-20 07:54:52 51°14.106 2°53.634 65.7 11.6 60 7.4
2007-04-20 07:54:57 51°14.115 2°53.656 64.5 11.6 59 7.4
2007-04-20 07:55:02 51°14.123 2°53.678 63.6 11.6 59 7.3
2007-04-20 07:55:07 51°14.131 2°53.7 63.2 11.6 59 7.4
2007-04-20 07:55:13 51°14.142 2°53.726 63.1 11.6 58 7.3
2007-04-20 07:55:17 51°14.148 2°53.743 62.8 11.6 60 7.2
2007-04-20 07:55:23 51°14.158 2°53.77 63.4 11.6 59 5.5
2007-04-20 07:55:27 51°14.164 2°53.788 63.6 11.7 61 7.3
2007-04-20 07:55:33 51°14.174 2°53.814 63.8 11.7 59 7.2
2007-04-20 07:55:37 51°14.181 2°53.832 63.5 11.7 60 7.2
2007-04-20 07:55:43 51°14.19 2°53.859 63.8 11.6 61 7.2
2007-04-20 07:55:47 51°14.196 2°53.877 64.5 11.6 62 5.5
2007-04-20 07:55:52 51°14.204 2°53.9 65.7 11.6 62 7.2
2007-04-20 07:55:57 51°14.211 2°53.923 66.2 11.7 63 7.2
2007-04-20 07:56:03 51°14.22 2°53.95 66.2 11.7 62 7.1
2007-04-20 07:56:07 51°14.226 2°53.969 66.5 11.7 64 7.1
2007-04-20 07:56:12 51°14.233 2°53.992 67.1 11.6 63 7.1
2007-04-20 07:56:17 51°14.24 2°54.015 67.5 11.6 64 7.1
2007-04-20 07:56:23 51°14.249 2°54.042 67.3 11.5 62 7
2007-04-20 07:56:28 51°14.257 2°54.064 66.7 11.5 61 7.1
2007-04-20 07:56:32 51°14.264 2°54.081 65.7 11.5 58 7
2007-04-20 07:56:37 51°14.273 2°54.102 63.1 11.5 55 7
2007-04-20 07:56:42 51°14.283 2°54.122 60.7 11.5 53 7.1
2007-04-20 07:56:48 51°14.295 2°54.146 58.2 11.6 51 7.1
2007-04-20 07:56:52 51°14.303 2°54.162 56.6 11.5 50 7.1
2007-04-20 07:56:57 51°14.314 2°54.181 55.1 11.6 50 7.1
2007-04-20 07:57:02 51°14.324 2°54.201 54.9 11.6 52 7.2
2007-04-20 07:57:07 51°14.333 2°54.222 55.8 11.7 56 7.2
2007-04-20 07:57:12 51°14.341 2°54.245 58.1 11.7 62 5.3
2007-04-20 07:57:17 51°14.348 2°54.268 62.5 11.7 65 7.2
2007-04-20 07:57:23 51°14.355 2°54.297 66.8 11.8 69 7.1
2007-04-20 07:57:27 51°14.359 2°54.317 70.4 11.7 72 7.2
2007-04-20 07:57:33 51°14.365 2°54.346 73.4 11.6 73 7.3
2007-04-20 07:57:37 51°14.368 2°54.366 75.6 11.5 74 7.3
2007-04-20 07:57:43 51°14.373 2°54.396 76.5 11.5 74 7.4
2007-04-20 07:57:47 51°14.378 2°54.415 76.7 11.6 72 7.5
2007-04-20 07:57:52 51°14.382 2°54.44 75.4 11.7 75 7.5
2007-04-20 07:57:57 51°14.387 2°54.465 76.3 11.9 74 7.5
2007-04-20 07:58:03 51°14.391 2°54.496 76.7 11.9 78 7.5
2007-04-20 07:58:07 51°14.393 2°54.516 78.5 12 80 7.6
2007-04-20 07:58:12 51°14.395 2°54.543 81.2 12.1 85 8.1
2007-04-20 07:58:17 51°14.396 2°54.57 85.4 12.3 86 8.3
2007-04-20 07:58:23 51°14.397 2°54.603 87.6 12.5 86 9.8
2007-04-20 07:58:27 51°14.398 2°54.626 87.6 12.6 87 9
2007-04-20 07:58:32 51°14.399 2°54.654 88.7 12.7 89 9.3
2007-04-20 07:58:37 51°14.398 2°54.681 90.3 12.6 92 8.7
2007-04-20 07:58:43 51°14.397 2°54.715 92.9 12.5 91 9.3
2007-04-20 07:58:47 51°14.397 2°54.737 93.4 12.3 93 9.4
2007-04-20 07:58:52 51°14.395 2°54.763 94.3 12.3 97 8.9
2007-04-20 07:58:57 51°14.393 2°54.79 97.4 12.1 97 9
2007-04-20 07:59:03 51°14.389 2°54.821 97.9 11.9 100 8.6
2007-04-20 07:59:08 51°14.387 2°54.847 99.9 12 100 8.7
2007-04-20 07:59:12 51°14.384 2°54.869 101.2 12.3 100 8.3
2007-04-20 07:59:17 51°14.382 2°54.896 101.2 12.6 99 8.5
2007-04-20 07:59:22 51°14.379 2°54.924 100.8 12.5 99 8
2007-04-20 07:59:28 51°14.374 2°54.955 100.7 12.2 104 7.8
2007-04-20 07:59:33 51°14.371 2°54.981 103.9 12.2 102 7.9
2007-04-20 07:59:37 51°14.367 2°55.002 104.7 12.1 106 7.7
2007-04-20 07:59:43 51°14.361 2°55.033 105.9 12.2 108 7.9
2007-04-20 07:59:47 51°14.356 2°55.053 109.9 12.2 111 8.2
2007-04-20 07:59:53 51°14.348 2°55.083 112.8 12.4 113 8.5
2007-04-20 07:59:57 51°14.342 2°55.104 115.4 12.7 115 8.9
2007-04-20 08:00:03 51°14.332 2°55.133 117 12.5 118 4.5
2007-04-20 08:00:07 51°14.325 2°55.151 120.1 11.8 125 9.5
2007-04-20 08:00:12 51°14.315 2°55.172 124.2 11.7 126 9.5
2007-04-20 08:00:18 51°14.303 2°55.195 129.1 11.4 129 9.6
2007-04-20 08:00:23 51°14.294 2°55.214 131.2 10.7 128 9.6
2007-04-20 08:00:27 51°14.287 2°55.227 131.9 10.1 130 9.6
2007-04-20 08:00:32 51°14.279 2°55.243 132.5 9.4 131 9.9
2007-04-20 08:00:38 51°14.268 2°55.261 134.2 9.2 135 10.1
2007-04-20 08:00:43 51°14.259 2°55.274 136.8 8.8 137 9.9
2007-04-20 08:00:48 51°14.25 2°55.286 139.5 8.5 140 10.1
2007-04-20 08:00:52 51°14.243 2°55.295 142.2 8.3 142 10.3
2007-04-20 08:00:58 51°14.232 2°55.308 145.1 8.2 143 -999
2007-04-20 08:01:03 51°14.223 2°55.319 147.1 8 144 10.2
2007-04-20 08:01:08 51°14.214 2°55.329 147.5 7.9 145 -999
2007-04-20 08:01:13 51°14.205 2°55.338 147.8 7.7 145 10.3
2007-04-20 08:01:17 51°14.198 2°55.346 148.2 7.6 145 4.7
2007-04-20 08:01:22 51°14.19 2°55.356 148.2 7.5 144 10.2
2007-04-20 08:01:28 51°14.18 2°55.367 147.7 7.4 144 10.2
2007-04-20 08:01:32 51°14.173 2°55.375 147 7.2 143 4.6
2007-04-20 08:01:37 51°14.166 2°55.384 146.6 7.1 143 10.1
2007-04-20 08:01:43 51°14.156 2°55.395 146.4 7 143 10
2007-04-20 08:01:48 51°14.148 2°55.405 146.4 7 144 -999
2007-04-20 08:01:53 51°14.141 2°55.414 146.6 7 144 -999
2007-04-20 08:01:58 51°14.133 2°55.423 147 7 144 -999
2007-04-20 08:02:02 51°14.126 2°55.43 147.8 7 146 10.1
2007-04-20 08:02:07 51°14.118 2°55.439 148.5 7 145 10.1
2007-04-20 08:02:13 51°14.108 2°55.449 149.2 6.9 146 -999
2007-04-20 08:02:18 51°14.101 2°55.458 149.3 6.9 144 -999
2007-04-20 08:02:23 51°14.093 2°55.468 148 6.9 143 9.9
2007-04-20 08:02:27 51°14.087 2°55.475 146.9 6.8 142 10.2
2007-04-20 08:02:32 51°14.079 2°55.484 146.6 6.8 142 9.8
2007-04-20 08:02:37 51°14.072 2°55.494 146.3 6.8 141 9.8
2007-04-20 08:02:43 51°14.064 2°55.505 145.9 6.6 141 9.7
2007-04-20 08:02:47 51°14.058 2°55.512 145 6.3 140 9.7
2007-04-20 08:02:53 51°14.051 2°55.523 144.4 6.1 139 9.7
2007-04-20 08:02:57 51°14.046 2°55.53 143.7 5.9 138 9.6
2007-04-20 08:03:03 51°14.039 2°55.54 143 5.7 137 9.7
2007-04-20 08:03:07 51°14.034 2°55.547 142.2 5.5 136 9.7
2007-04-20 08:03:12 51°14.029 2°55.555 141.2 5.3 136 9.7
2007-04-20 08:03:17 51°14.024 2°55.563 140.2 5.2 135 9.5
2007-04-20 08:03:23 51°14.018 2°55.573 139.4 5 135 9.6
2007-04-20 08:03:28 51°14.013 2°55.58 139.1 4.8 138 9.5
2007-04-20 08:03:32 51°14.009 2°55.585 140.8 4.8 142 9.4
2007-04-20 08:03:37 51°14.003 2°55.591 143.7 4.8 147 9.4
2007-04-20 08:03:42 51°13.997 2°55.596 148.9 4.7 153 9.4
2007-04-20 08:03:48 51°13.99 2°55.601 155.3 4.7 159 9.6
2007-04-20 08:03:52 51°13.985 2°55.603 161.7 4.5 164 9.8
2007-04-20 08:03:58 51°13.978 2°55.605 168.3 4.3 171 9.6
2007-04-20 08:04:03 51°13.973 2°55.606 175.3 4.1 174 9.6
2007-04-20 08:04:07 51°13.968 2°55.606 179 4 182 9.5
2007-04-20 08:04:13 51°13.962 2°55.605 184.8 3.9 186 4.6
2007-04-20 08:04:17 51°13.958 2°55.603 190.1 3.9 194 9.4
2007-04-20 08:04:23 51°13.952 2°55.6 196 3.7 198 9.5
2007-04-20 08:04:27 51°13.948 2°55.597 202.4 3.5 205 4.7
2007-04-20 08:04:32 51°13.944 2°55.594 206.6 3.2 207 5
2007-04-20 08:04:38 51°13.941 2°55.59 211 2.6 210 -999
2007-04-20 08:04:43 51°13.938 2°55.587 215.3 2 217 5.7
2007-04-20 08:04:47 51°13.937 2°55.586 220.6 1.3 220 4.8
2007-04-20 08:04:52 51°13.936 2°55.585 225.4 0.7 227 4.8
2007-04-20 08:04:58 51°13.936 2°55.584 230 0.1 184 4.5
2007-04-20 08:05:03 51°13.937 2°55.586 235.5 0.5 59 4.7
2007-04-20 08:05:08 51°13.937 2°55.587 240.6 1 61 4.5
2007-04-20 08:05:12 51°13.938 2°55.59 244.8 1.4 63 4.7
2007-04-20 08:05:17 51°13.939 2°55.593 248 1.8 65 4.8
2007-04-20 08:05:23 51°13.941 2°55.598 250.9 1.9 66 -999
2007-04-20 08:05:28 51°13.942 2°55.602 253 1.9 65 -999
2007-04-20 08:05:33 51°13.943 2°55.606 254 2 68 -999
2007-04-20 08:05:38 51°13.944 2°55.61 254.7 2.1 69 -999
2007-04-20 08:05:43 51°13.945 2°55.614 255.2 2.1 70 -999
2007-04-20 08:05:48 51°13.946 2°55.619 255.4 2 67 -999
2007-04-20 08:05:53 51°13.947 2°55.623 255.4 1.9 66 -999
2007-04-20 08:05:58 51°13.948 2°55.626 255.2 1.7 67 -999
2007-04-20 08:06:03 51°13.949 2°55.628 255.5 1.2 59 -999
2007-04-20 08:06:08 51°13.949 2°55.629 256.9 0.6 52 -999
2007-04-20 08:06:13 51°13.949 2°55.629 259.7 0.2 309 -999
2007-04-20 08:06:18 51°13.95 2°55.628 263.4 0.5 294 -999
2007-04-20 08:06:23 51°13.95 2°55.626 268.1 0.7 280 4.6
2007-04-20 08:06:28 51°13.95 2°55.624 272.1 0.9 284 -999
2007-04-20 08:06:33 51°13.951 2°55.622 276.5 1.1 281 -999
2007-04-20 08:06:38 51°13.951 2°55.619 279.6 1.2 284 -999
2007-04-20 08:06:43 51°13.951 2°55.616 282.6 1.3 281 -999
2007-04-20 08:06:48 51°13.952 2°55.613 285.3 1.5 284 -999
2007-04-20 08:06:53 51°13.953 2°55.609 287.9 1.7 285 -999
2007-04-20 08:06:58 51°13.953 2°55.605 290 1.8 287 -999
2007-04-20 08:07:03 51°13.954 2°55.601 291.9 2 288 -999
2007-04-20 08:07:07 51°13.955 2°55.598 293.1 2.1 289 4.7
2007-04-20 08:07:12 51°13.956 2°55.593 294.2 2.2 290 4.9
2007-04-20 08:07:18 51°13.957 2°55.587 295.2 2.4 291 5
2007-04-20 08:07:23 51°13.959 2°55.582 296.6 2.5 293 4.8
2007-04-20 08:07:28 51°13.96 2°55.577 298 2.6 295 4.9
2007-04-20 08:07:32 51°13.962 2°55.573 299.5 2.7 297 9.9
2007-04-20 08:07:37 51°13.964 2°55.567 301.1 2.7 298 9.6
2007-04-20 08:07:43 51°13.966 2°55.561 302.2 2.7 301 9.6
2007-04-20 08:07:48 51°13.967 2°55.556 302.7 2.6 301 9.4
2007-04-20 08:07:52 51°13.969 2°55.552 303.2 2.7 301 9.8
2007-04-20 08:07:57 51°13.971 2°55.547 303.4 2.6 302 9.6
2007-04-20 08:08:03 51°13.973 2°55.542 303.4 2.5 302 10
2007-04-20 08:08:08 51°13.975 2°55.537 302.7 2.5 303 10
2007-04-20 08:08:13 51°13.977 2°55.532 302.3 2.6 302 -999
2007-04-20 08:08:18 51°13.979 2°55.528 301.6 2.6 302 -999
2007-04-20 08:08:23 51°13.981 2°55.523 301.1 2.5 302 -999
2007-04-20 08:08:27 51°13.982 2°55.519 300.4 2.6 301 9.6
2007-04-20 08:08:33 51°13.984 2°55.513 300.2 2.6 300 9.7
2007-04-20 08:08:38 51°13.986 2°55.508 299.8 2.6 299 9.7
2007-04-20 08:08:43 51°13.988 2°55.503 299.8 2.5 301 9.8
2007-04-20 08:08:47 51°13.989 2°55.499 299.8 2.4 298 9.5
2007-04-20 08:08:53 51°13.991 2°55.494 299.8 2.3 301 9.5
2007-04-20 08:08:58 51°13.992 2°55.489 300.4 2.2 299 9.4
2007-04-20 08:09:03 51°13.994 2°55.485 301 2 300 9.4
2007-04-20 08:09:08 51°13.995 2°55.482 301.6 2 300 -999
2007-04-20 08:09:13 51°13.996 2°55.478 302.9 1.9 301 9.2
2007-04-20 08:09:17 51°13.998 2°55.476 304.5 1.8 302 9.2
2007-04-20 08:09:23 51°13.999 2°55.472 305.4 1.7 303 9.2
2007-04-20 08:09:27 51°14 2°55.47 306.7 1.6 303 8.4
2007-04-20 08:09:32 51°14.001 2°55.467 308.4 1.5 308 7.7
2007-04-20 08:09:38 51°14.003 2°55.464 310.4 1.4 306 6.5
2007-04-20 08:09:43 51°14.004 2°55.462 312.3 1.3 311 5.9
2007-04-20 08:09:47 51°14.005 2°55.46 314.2 1.1 309 5.2
2007-04-20 08:09:52 51°14.006 2°55.459 316.2 0.8 315 4.9
2007-04-20 08:09:57 51°14.006 2°55.458 318.4 0.6 313 4.8
2007-04-20 08:10:03 51°14.006 2°55.457 320.7 0.3 309 4.8
2007-04-20 08:10:08 51°14.006 2°55.457 322.8 0.1 287 4.8
2007-04-20 08:10:12 51°14.006 2°55.458 324.7 0.1 309 4.8
2007-04-20 08:10:17 51°14.006 2°55.457 326.2 0.1 289 4.9
2007-04-20 08:10:22 51°14.006 2°55.457 327.3 0.1 303 4.9
2007-04-20 08:10:28 51°14.006 2°55.457 328 0.1 286 4.9
2007-04-20 08:10:33 51°14.006 2°55.457 328.7 0.1 316 4.9
2007-04-20 08:10:37 51°14.007 2°55.457 329.1 0.2 305 4.9
2007-04-20 08:10:43 51°14.007 2°55.456 329.6 0.1 299 4.9
2007-04-20 08:10:48 51°14.007 2°55.456 330.3 0.1 273 4.8
2007-04-20 08:10:52 51°14.007 2°55.456 330.9 -999 261 4.8
2007-04-20 08:10:57 51°14.007 2°55.455 330.9 0.2 272 4.8
2007-04-20 08:11:03 51°14.007 2°55.455 330.8 0.1 296 4.8
2007-04-20 08:11:07 51°14.007 2°55.455 330.8 0.1 266 4.7
2007-04-20 08:11:13 51°14.007 2°55.454 330.9 0.1 276 4.7
2007-04-20 08:11:17 51°14.007 2°55.454 330.9 0.1 260 4.7
2007-04-20 08:11:23 51°14.005 2°55.455 331 0.1 242 4.5
2007-04-20 08:11:27 51°14.006 2°55.454 331 0.1 250 4.5
2007-04-20 08:11:33 51°14.007 2°55.454 331 0.1 174 -999
2007-04-20 08:11:38 51°14.006 2°55.454 331 0.2 172 4.5
2007-04-20 08:11:43 51°14.006 2°55.454 331.4 0.2 143 -999
2007-04-20 08:11:48 51°14.006 2°55.454 331.9 0.2 171 -999
2007-04-20 08:11:53 51°14.006 2°55.454 332.4 0.2 147 -999
2007-04-20 08:11:58 51°14.006 2°55.454 332.8 0.1 121 -999
2007-04-20 08:12:03 51°14.006 2°55.454 332.9 0.1 139 4.6
2007-04-20 08:12:08 51°14.006 2°55.454 333 -999 311 -999
2007-04-20 08:12:13 51°14.006 2°55.454 333.1 0.1 328 4.5
2007-04-20 08:12:17 51°14.006 2°55.454 333.8 0.2 326 -999
2007-04-20 08:12:23 51°14.006 2°55.453 334.8 0.2 320 4.5
2007-04-20 08:12:28 51°14.007 2°55.453 336.3 0.2 327 -999
2007-04-20 08:12:33 51°14.007 2°55.453 337.3 0.1 265 -999
2007-04-20 08:12:38 51°14.007 2°55.453 337.9 0.1 143 -999
2007-04-20 08:12:43 51°14.006 2°55.453 338.4 0.1 159 -999
2007-04-20 08:12:48 51°14.006 2°55.453 339.1 0.1 167 -999
2007-04-20 08:12:53 51°14.006 2°55.453 339.5 0.1 197 -999
2007-04-20 08:12:58 51°14.006 2°55.453 339.8 0.1 323 -999
2007-04-20 08:13:03 51°14.006 2°55.453 340.1 0.2 272 -999
2007-04-20 08:13:07 51°14.006 2°55.453 341 0.1 -999 -999
2007-04-20 08:13:13 51°14.006 2°55.452 341.4 0.2 275 -999
2007-04-20 08:13:18 51°14.006 2°55.452 341.8 0.1 13 -999
2007-04-20 08:13:23 51°14.006 2°55.452 342.1 0.1 270 -999
2007-04-20 08:13:28 51°14.006 2°55.452 342.3 0.1 1 -999
2007-04-20 08:13:32 51°14.006 2°55.452 342.4 -999 247 -999
2007-04-20 08:13:38 51°14.006 2°55.452 342.4 -999 238 -999
2007-04-20 08:13:43 51°14.006 2°55.452 342.5 0.1 258 -999
2007-04-20 08:13:48 51°14.006 2°55.452 342.8 -999 275 -999
2007-04-20 08:13:53 51°14.006 2°55.451 343.3 0.1 233 -999
2007-04-20 08:13:58 51°14.006 2°55.452 343.7 0.1 80 -999
2007-04-20 08:14:03 51°14.006 2°55.452 344.5 0.1 235 -999
2007-04-20 08:14:08 51°14.006 2°55.452 345.5 0.1 124 -999
2007-04-20 08:14:13 51°14.006 2°55.452 347 0.1 234 -999
2007-04-20 08:14:18 51°14.006 2°55.452 348 -999 70 -999
2007-04-20 08:14:23 51°14.006 2°55.451 348.5 0.2 264 -999
2007-04-20 08:14:28 51°14.006 2°55.451 348.8 0.1 150 -999
2007-04-20 08:14:33 51°14.006 2°55.451 349.5 0.1 218 -999
2007-04-20 08:14:38 51°14.006 2°55.451 350.2 -999 210 -999
2007-04-20 08:14:43 51°14.006 2°55.451 351 -999 153 -999
2007-04-20 08:14:48 51°14.006 2°55.451 351.5 0.1 90 -999
2007-04-20 08:14:53 51°14.006 2°55.451 352 0.2 233 -999
2007-04-20 08:14:58 51°14.006 2°55.451 351.6 0.1 240 -999
2007-04-20 08:15:03 51°14.006 2°55.451 351.2 -999 85 -999
2007-04-20 08:15:08 51°14.006 2°55.451 351.2 -999 47 -999
2007-04-20 08:15:13 51°14.006 2°55.451 351.2 0.1 185 -999
2007-04-20 08:15:18 51°14.006 2°55.451 351.2 0.1 159 -999
2007-04-20 08:15:23 51°14.006 2°55.451 351.2 0.1 174 -999
2007-04-20 08:15:28 51°14.005 2°55.45 351.2 0.1 192 -999
2007-04-20 08:15:33 51°14.005 2°55.45 351.1 0.1 156 -999
2007-04-20 08:15:38 51°14.005 2°55.451 351 0.1 164 -999
2007-04-20 08:15:43 51°14.005 2°55.451 350.9 -999 182 -999
2007-04-20 08:15:48 51°14.005 2°55.451 350.7 -999 88 -999
2007-04-20 08:15:53 51°14.005 2°55.451 350.7 -999 314 -999
2007-04-20 08:15:58 51°14.005 2°55.451 350.7 -999 196 -999
2007-04-20 08:16:03 51°14.005 2°55.451 350.6 -999 110 -999
2007-04-20 08:16:08 51°14.005 2°55.451 350.6 -999 36 -999
2007-04-20 08:16:13 51°14.005 2°55.452 350.6 -999 41 -999
2007-04-20 08:16:18 51°14.005 2°55.452 350.6 -999 176 -999
2007-04-20 08:16:23 51°14.005 2°55.452 350.6 0.1 180 -999
2007-04-20 08:16:28 51°14.005 2°55.451 350.6 0.1 189 -999
2007-04-20 08:16:33 51°14.005 2°55.451 350.6 0.1 190 -999
2007-04-20 08:16:38 51°14.005 2°55.451 350.4 -999 121 -999
2007-04-20 08:16:43 51°14.005 2°55.451 350.2 -999 52 -999
2007-04-20 08:16:48 51°14.005 2°55.451 350.2 -999 336 -999
2007-04-20 08:16:53 51°14.005 2°55.451 350.2 -999 17 -999
2007-04-20 08:16:58 51°14.005 2°55.451 350.2 0.1 359 -999
2007-04-20 08:17:03 51°14.005 2°55.451 350.2 -999 205 -999
2007-04-20 08:17:08 51°14.004 2°55.451 350.2 -999 339 -999
2007-04-20 08:17:13 51°14.004 2°55.451 350.2 -999 86 -999
2007-04-20 08:17:18 51°14.004 2°55.452 350.2 0.1 178 -999
2007-04-20 08:17:23 51°14.004 2°55.452 350.2 -999 227 -999
2007-04-20 08:17:28 51°14.004 2°55.452 350.2 -999 354 -999
2007-04-20 08:17:33 51°14.004 2°55.451 350.2 -999 131 -999
2007-04-20 08:17:38 51°14.003 2°55.452 350.2 -999 246 -999
2007-04-20 08:17:43 51°14.003 2°55.453 350.2 -999 180 -999
2007-04-20 08:17:47 51°14.003 2°55.454 350.2 -999 332 -999
2007-04-20 08:17:53 51°14.003 2°55.454 350.2 -999 263 -999
2007-04-20 08:17:58 51°14.003 2°55.455 350.2 -999 74 -999
2007-04-20 08:18:03 51°14.003 2°55.455 350.2 -999 88 -999
2007-04-20 08:18:08 51°14.003 2°55.454 350.2 -999 290 -999
2007-04-20 08:18:13 51°14.003 2°55.455 350.2 0.1 353 -999
2007-04-20 08:18:18 51°14.002 2°55.455 350.2 -999 51 -999
2007-04-20 08:18:23 51°14.002 2°55.455 350.2 -999 259 -999
2007-04-20 08:18:28 51°14.003 2°55.455 350.2 -999 344 -999
2007-04-20 08:18:33 51°14.004 2°55.454 350.1 -999 106 -999
2007-04-20 08:18:38 51°14.004 2°55.452 350.2 -999 248 -999
2007-04-20 08:18:43 51°14.004 2°55.452 350.2 -999 122 -999
2007-04-20 08:18:48 51°14.004 2°55.451 350.2 -999 173 -999
2007-04-20 08:18:53 51°14.004 2°55.451 350.2 -999 333 -999
2007-04-20 08:18:58 51°14.004 2°55.451 350.2 -999 182 -999
2007-04-20 08:19:03 51°14.004 2°55.451 350.1 -999 260 -999
2007-04-20 08:19:08 51°14.004 2°55.451 350.1 -999 331 -999
2007-04-20 08:19:13 51°14.004 2°55.452 350.1 -999 40 -999
2007-04-20 08:19:18 51°14.004 2°55.452 350.1 -999 171 -999
2007-04-20 08:19:23 51°14.004 2°55.452 350.1 -999 289 -999
2007-04-20 08:19:28 51°14.004 2°55.451 350.1 -999 257 -999
2007-04-20 08:19:33 51°14.004 2°55.451 350.1 -999 257 -999
2007-04-20 08:19:38 51°14.004 2°55.451 350.1 -999 15 -999
2007-04-20 08:19:43 51°14.005 2°55.45 350.1 -999 339 -999
2007-04-20 08:19:48 51°14.005 2°55.449 350.1 -999 54 -999
2007-04-20 08:19:53 51°14.006 2°55.448 350 -999 278 -999
2007-04-20 08:19:58 51°14.006 2°55.447 350 -999 256 -999
2007-04-20 08:20:03 51°14.006 2°55.446 350 -999 280 -999
2007-04-20 08:20:08 51°14.006 2°55.446 350 -999 69 -999
2007-04-20 08:20:13 51°14.005 2°55.447 350 -999 184 -999
2007-04-20 08:20:18 51°14.005 2°55.447 350 -999 142 -999
2007-04-20 08:20:23 51°14.005 2°55.448 350 -999 18 -999
2007-04-20 08:20:28 51°14.004 2°55.449 350 -999 59 -999
2007-04-20 08:20:33 51°14.004 2°55.45 350 -999 163 -999
2007-04-20 08:20:38 51°14.004 2°55.45 350 -999 244 -999
2007-04-20 08:20:43 51°14.004 2°55.449 350 -999 340 -999
2007-04-20 08:20:48 51°14.005 2°55.448 349.9 -999 328 -999
2007-04-20 08:20:53 51°14.005 2°55.447 349.9 -999 274 -999
2007-04-20 08:20:58 51°14.005 2°55.448 349.9 -999 268 -999
2007-04-20 08:21:03 51°14.004 2°55.448 349.9 -999 292 -999
2007-04-20 08:21:08 51°14.004 2°55.449 349.9 -999 276 -999
2007-04-20 08:21:13 51°14.004 2°55.449 349.9 -999 270 -999
2007-04-20 08:21:18 51°14.005 2°55.449 349.9 -999 304 -999
2007-04-20 08:21:23 51°14.005 2°55.449 349.9 -999 93 -999
2007-04-20 08:21:28 51°14.005 2°55.449 349.9 -999 197 -999
2007-04-20 08:21:33 51°14.005 2°55.449 349.9 -999 283 -999
2007-04-20 08:21:38 51°14.005 2°55.449 349.9 -999 12 -999
2007-04-20 08:21:43 51°14.005 2°55.449 349.9 -999 96 -999
2007-04-20 08:21:48 51°14.005 2°55.45 349.9 -999 109 -999
2007-04-20 08:21:53 51°14.005 2°55.45 349.9 -999 95 -999
2007-04-20 08:21:58 51°14.005 2°55.45 349.9 -999 219 -999
2007-04-20 08:22:03 51°14.005 2°55.45 349.9 -999 89 -999
2007-04-20 08:22:08 51°14.005 2°55.45 349.9 -999 98 -999
2007-04-20 08:22:13 51°14.005 2°55.45 349.8 -999 300 -999
2007-04-20 08:22:18 51°14.005 2°55.45 349.8 -999 75 -999
2007-04-20 08:22:23 51°14.005 2°55.45 349.8 -999 277 -999
2007-04-20 08:22:28 51°14.005 2°55.45 349.8 -999 96 -999
2007-04-20 08:22:33 51°14.005 2°55.45 349.8 -999 219 -999
2007-04-20 08:22:38 51°14.005 2°55.45 349.8 -999 267 -999
2007-04-20 08:22:43 51°14.005 2°55.45 349.8 -999 283 -999
2007-04-20 08:22:48 51°14.005 2°55.45 349.8 -999 269 -999
2007-04-20 08:22:53 51°14.005 2°55.45 349.8 -999 133 -999
2007-04-20 08:22:58 51°14.005 2°55.45 349.8 -999 232 -999
2007-04-20 08:23:03 51°14.005 2°55.45 349.8 -999 201 -999
2007-04-20 08:23:08 51°14.005 2°55.45 349.8 -999 121 -999
2007-04-20 08:23:13 51°14.005 2°55.45 349.8 -999 20 -999
2007-04-20 08:23:18 51°14.005 2°55.45 349.8 -999 292 -999
2007-04-20 08:23:23 51°14.005 2°55.451 349.8 0.1 153 -999
2007-04-20 08:23:28 51°14.005 2°55.451 349.8 -999 138 -999
2007-04-20 08:23:33 51°14.005 2°55.451 349.8 0.1 182 -999
2007-04-20 08:23:38 51°14.005 2°55.451 349.8 -999 243 -999
2007-04-20 08:23:43 51°14.005 2°55.451 349.8 -999 282 -999
2007-04-20 08:23:48 51°14.005 2°55.451 349.8 -999 16 -999
2007-04-20 08:23:53 51°14.005 2°55.451 349.8 -999 278 -999
2007-04-20 08:23:58 51°14.005 2°55.451 349.8 -999 132 -999
2007-04-20 08:24:03 51°14.005 2°55.451 349.8 -999 154 -999
2007-04-20 08:24:08 51°14.005 2°55.451 349.8 -999 343 -999
2007-04-20 08:24:13 51°14.005 2°55.451 349.8 -999 5 -999
2007-04-20 08:24:18 51°14.005 2°55.451 349.8 -999 343 -999
2007-04-20 08:24:23 51°14.005 2°55.451 349.8 -999 208 -999
2007-04-20 08:24:28 51°14.005 2°55.451 349.8 -999 89 -999
2007-04-20 08:24:33 51°14.005 2°55.451 349.8 -999 328 -999
2007-04-20 08:24:38 51°14.005 2°55.451 349.7 -999 222 -999
2007-04-20 08:24:43 51°14.005 2°55.451 349.7 -999 147 -999
2007-04-20 08:24:48 51°14.005 2°55.451 349.7 -999 42 -999
2007-04-20 08:24:53 51°14.005 2°55.451 349.7 -999 176 -999
2007-04-20 08:24:58 51°14.005 2°55.451 349.7 -999 287 -999
2007-04-20 08:25:03 51°14.005 2°55.451 349.6 -999 29 -999
2007-04-20 08:25:08 51°14.005 2°55.451 349.6 -999 79 -999
2007-04-20 08:25:13 51°14.005 2°55.451 349.6 -999 246 -999
2007-04-20 08:25:18 51°14.005 2°55.451 349.6 -999 339 -999
2007-04-20 08:25:23 51°14.005 2°55.451 349.6 0.1 54 -999
2007-04-20 08:25:28 51°14.005 2°55.451 349.6 -999 312 -999
2007-04-20 08:25:33 51°14.005 2°55.451 349.6 -999 242 -999
2007-04-20 08:25:38 51°14.005 2°55.451 349.6 0.1 179 -999
2007-04-20 08:25:43 51°14.005 2°55.451 349.6 -999 160 -999
2007-04-20 08:25:48 51°14.005 2°55.45 349.6 0.1 197 -999
2007-04-20 08:25:53 51°14.005 2°55.45 349.6 -999 256 -999
2007-04-20 08:25:58 51°14.005 2°55.45 349.6 0.1 346 -999
2007-04-20 08:26:03 51°14.005 2°55.45 349.5 -999 19 -999
2007-04-20 08:26:08 51°14.005 2°55.45 349.5 -999 78 -999
2007-04-20 08:26:13 51°14.005 2°55.45 349.5 -999 113 -999
2007-04-20 08:26:18 51°14.005 2°55.45 349.5 -999 193 -999
2007-04-20 08:26:23 51°14.005 2°55.45 349.5 -999 180 -999
2007-04-20 08:26:28 51°14.005 2°55.45 349.5 -999 304 -999
2007-04-20 08:26:33 51°14.005 2°55.45 349.5 0.1 2 -999
2007-04-20 08:26:38 51°14.005 2°55.45 349.5 -999 68 -999
2007-04-20 08:26:43 51°14.005 2°55.45 349.5 -999 315 -999
2007-04-20 08:26:48 51°14.005 2°55.45 349.5 -999 187 -999
2007-04-20 08:26:53 51°14.005 2°55.45 349.5 -999 244 -999
2007-04-20 08:26:58 51°14.005 2°55.45 349.4 -999 23 -999
2007-04-20 08:27:03 51°14.005 2°55.45 349.4 -999 78 -999
2007-04-20 08:27:08 51°14.005 2°55.45 349.4 -999 150 -999
2007-04-20 08:27:13 51°14.005 2°55.45 349.4 -999 152 -999
2007-04-20 08:27:18 51°14.005 2°55.45 349.4 -999 218 -999
2007-04-20 08:27:23 51°14.005 2°55.45 349.4 -999 100 -999
2007-04-20 08:27:28 51°14.005 2°55.45 349.4 -999 54 -999
2007-04-20 08:27:33 51°14.005 2°55.45 349.4 -999 57 -999
2007-04-20 08:27:38 51°14.005 2°55.45 349.4 -999 213 -999
2007-04-20 08:27:43 51°14.005 2°55.45 349.4 -999 242 -999
2007-04-20 08:27:48 51°14.005 2°55.451 349.4 -999 60 -999
2007-04-20 08:27:53 51°14.005 2°55.451 349.4 -999 89 -999
2007-04-20 08:27:58 51°14.005 2°55.451 349.3 -999 14 -999
2007-04-20 08:28:03 51°14.005 2°55.451 349.3 -999 92 -999
2007-04-20 08:28:08 51°14.005 2°55.451 349.3 -999 217 -999
2007-04-20 08:28:13 51°14.005 2°55.451 349.3 -999 142 -999
2007-04-20 08:28:18 51°14.005 2°55.451 349.3 -999 72 -999
2007-04-20 08:28:23 51°14.005 2°55.451 349.3 -999 85 -999
2007-04-20 08:28:28 51°14.005 2°55.451 349.3 -999 259 -999
2007-04-20 08:28:33 51°14.005 2°55.451 349.3 -999 230 -999
2007-04-20 08:28:38 51°14.005 2°55.451 349.3 -999 177 -999
2007-04-20 08:28:43 51°14.005 2°55.45 349.3 0.1 187 -999
2007-04-20 08:28:48 51°14.005 2°55.45 349.3 -999 142 -999
2007-04-20 08:28:53 51°14.005 2°55.45 349.3 -999 8 -999
2007-04-20 08:28:58 51°14.005 2°55.45 349.3 0.1 353 -999
2007-04-20 08:29:03 51°14.005 2°55.45 349.3 -999 101 -999
2007-04-20 08:29:08 51°14.005 2°55.45 349.3 0.1 201 -999
2007-04-20 08:29:13 51°14.005 2°55.45 349.2 -999 337 -999
2007-04-20 08:29:18 51°14.005 2°55.45 349.2 -999 41 -999
2007-04-20 08:29:23 51°14.005 2°55.45 349.2 -999 174 -999
2007-04-20 08:29:28 51°14.005 2°55.45 349.2 0.1 244 -999
2007-04-20 08:29:33 51°14.005 2°55.45 349.2 0.1 211 -999
2007-04-20 08:29:38 51°14.005 2°55.45 349.2 -999 227 -999
2007-04-20 08:29:43 51°14.005 2°55.45 349.2 -999 129 -999
2007-04-20 08:29:48 51°14.005 2°55.45 349.2 -999 227 -999
2007-04-20 08:29:53 51°14.005 2°55.45 349.2 0.1 191 -999
2007-04-20 08:29:58 51°14.005 2°55.45 349.2 -999 247 -999
2007-04-20 08:30:03 51°14.005 2°55.451 349.2 -999 12 -999
2007-04-20 08:30:08 51°14.005 2°55.451 349.1 -999 142 -999
2007-04-20 08:30:13 51°14.005 2°55.451 349.1 -999 183 -999
2007-04-20 08:30:18 51°14.005 2°55.451 349.1 -999 131 -999
2007-04-20 08:30:23 51°14.005 2°55.451 349.1 -999 34 -999
2007-04-20 08:30:28 51°14.005 2°55.451 349.1 -999 256 -999
2007-04-20 08:30:33 51°14.005 2°55.451 349.1 -999 9 -999
2007-04-20 08:30:38 51°14.005 2°55.451 349.1 0.1 54 -999
2007-04-20 08:30:43 51°14.005 2°55.451 349.1 -999 173 -999
2007-04-20 08:30:48 51°14.005 2°55.451 349.1 -999 77 -999
2007-04-20 08:30:53 51°14.005 2°55.451 349.1 -999 349 -999
2007-04-20 08:30:58 51°14.005 2°55.451 349.1 -999 21 -999
2007-04-20 08:31:03 51°14.005 2°55.451 349.1 -999 356 -999
2007-04-20 08:31:08 51°14.005 2°55.451 349.1 -999 93 -999
2007-04-20 08:31:13 51°14.005 2°55.451 349.1 -999 172 -999
2007-04-20 08:31:18 51°14.005 2°55.451 349.1 -999 196 -999
2007-04-20 08:31:23 51°14.005 2°55.451 349.1 -999 190 -999
2007-04-20 08:31:28 51°14.005 2°55.451 349.1 -999 260 -999
2007-04-20 08:31:33 51°14.005 2°55.451 349.1 -999 144 -999
2007-04-20 08:31:38 51°14.005 2°55.451 349.1 -999 274 -999
2007-04-20 08:31:43 51°14.005 2°55.451 349.1 -999 314 -999
2007-04-20 08:31:48 51°14.005 2°55.451 349.1 -999 191 -999
2007-04-20 08:31:53 51°14.005 2°55.451 349 -999 171 -999
2007-04-20 08:31:58 51°14.005 2°55.451 349 -999 55 -999
2007-04-20 08:32:03 51°14.005 2°55.451 349 -999 156 -999
2007-04-20 08:32:08 51°14.005 2°55.451 349 -999 180 -999
2007-04-20 08:32:13 51°14.005 2°55.451 349 -999 243 -999
2007-04-20 08:32:18 51°14.005 2°55.451 349 -999 254 -999
2007-04-20 08:32:23 51°14.005 2°55.451 349 -999 31 -999
2007-04-20 08:32:28 51°14.005 2°55.451 349 -999 50 -999
2007-04-20 08:32:33 51°14.005 2°55.451 349 -999 126 -999
2007-04-20 08:32:38 51°14.005 2°55.451 349 -999 99 -999
2007-04-20 08:32:43 51°14.005 2°55.451 349 -999 228 -999
2007-04-20 08:32:48 51°14.005 2°55.451 349 -999 20 -999
2007-04-20 08:32:53 51°14.005 2°55.451 349 -999 245 -999
2007-04-20 08:32:58 51°14.005 2°55.451 349 -999 149 -999
2007-04-20 08:33:03 51°14.005 2°55.451 348.9 -999 166 -999
2007-04-20 08:33:08 51°14.005 2°55.451 348.9 -999 359 -999
2007-04-20 08:33:13 51°14.005 2°55.451 348.9 -999 15 -999
2007-04-20 08:33:18 51°14.005 2°55.451 348.9 -999 85 -999
2007-04-20 08:33:23 51°14.005 2°55.451 348.9 -999 59 -999
2007-04-20 08:33:28 51°14.005 2°55.451 348.9 -999 254 -999
2007-04-20 08:33:33 51°14.005 2°55.451 348.9 -999 104 -999
2007-04-20 08:33:38 51°14.005 2°55.451 348.9 -999 176 -999
2007-04-20 08:33:43 51°14.005 2°55.451 348.9 -999 219 -999
2007-04-20 08:33:48 51°14.005 2°55.451 348.9 -999 57 -999
2007-04-20 08:33:53 51°14.005 2°55.451 348.9 -999 175 -999
2007-04-20 08:33:58 51°14.005 2°55.451 348.9 -999 229 -999
2007-04-20 08:34:03 51°14.004 2°55.451 348.9 0.1 239 -999
2007-04-20 08:34:08 51°14.004 2°55.451 348.8 -999 211 -999
2007-04-20 08:34:13 51°14.004 2°55.451 348.8 -999 42 -999
2007-04-20 08:34:18 51°14.004 2°55.451 348.8 -999 46 -999
2007-04-20 08:34:23 51°14.004 2°55.451 348.8 -999 63 -999
2007-04-20 08:34:28 51°14.004 2°55.451 348.8 -999 122 -999
2007-04-20 08:34:33 51°14.004 2°55.451 348.8 -999 196 -999
2007-04-20 08:34:38 51°14.004 2°55.451 348.8 -999 206 -999
2007-04-20 08:34:43 51°14.004 2°55.451 348.8 -999 225 -999
2007-04-20 08:34:48 51°14.004 2°55.451 348.8 -999 51 -999
2007-04-20 08:34:53 51°14.004 2°55.451 348.8 0.1 23 -999
2007-04-20 08:34:58 51°14.004 2°55.451 348.8 -999 137 -999
2007-04-20 08:35:03 51°14.004 2°55.451 348.8 -999 221 -999
2007-04-20 08:35:08 51°14.004 2°55.451 348.7 -999 172 -999
2007-04-20 08:35:13 51°14.004 2°55.451 348.7 -999 190 -999
2007-04-20 08:35:18 51°14.004 2°55.451 348.7 -999 240 -999
2007-04-20 08:35:23 51°14.004 2°55.451 348.7 -999 194 -999
2007-04-20 08:35:28 51°14.004 2°55.451 348.7 -999 138 -999
2007-04-20 08:35:33 51°14.004 2°55.451 348.7 0.1 206 -999
2007-04-20 08:35:38 51°14.004 2°55.451 348.7 -999 194 -999
2007-04-20 08:35:43 51°14.005 2°55.452 348.7 -999 11 -999
2007-04-20 08:35:48 51°14.005 2°55.452 348.6 -999 225 -999
2007-04-20 08:35:53 51°14.005 2°55.452 348.6 -999 210 -999
2007-04-20 08:35:58 51°14.005 2°55.452 348.6 -999 343 -999
2007-04-20 08:36:03 51°14.005 2°55.452 348.6 -999 37 -999
2007-04-20 08:36:08 51°14.005 2°55.452 348.6 -999 202 -999
2007-04-20 08:36:13 51°14.005 2°55.452 348.6 -999 189 -999
2007-04-20 08:36:18 51°14.005 2°55.452 348.6 -999 353 -999
2007-04-20 08:36:23 51°14.005 2°55.452 348.6 -999 53 -999
2007-04-20 08:36:28 51°14.005 2°55.452 348.6 -999 164 -999
2007-04-20 08:36:33 51°14.005 2°55.452 348.6 -999 309 -999
2007-04-20 08:36:38 51°14.005 2°55.452 348.6 -999 254 -999
2007-04-20 08:36:43 51°14.005 2°55.452 348.5 -999 113 -999
2007-04-20 08:36:48 51°14.005 2°55.452 348.5 -999 293 -999
2007-04-20 08:36:53 51°14.005 2°55.452 348.5 -999 284 -999
2007-04-20 08:36:58 51°14.005 2°55.452 348.5 -999 147 -999
2007-04-20 08:37:03 51°14.005 2°55.452 348.5 -999 215 -999
2007-04-20 08:37:08 51°14.005 2°55.452 348.5 -999 298 -999
2007-04-20 08:37:13 51°14.005 2°55.452 348.5 -999 172 -999
2007-04-20 08:37:18 51°14.005 2°55.452 348.5 -999 123 -999
2007-04-20 08:37:23 51°14.005 2°55.452 348.5 -999 194 -999
2007-04-20 08:37:28 51°14.005 2°55.452 348.5 -999 203 -999
2007-04-20 08:37:33 51°14.005 2°55.452 348.5 0.1 203 -999
2007-04-20 08:37:38 51°14.005 2°55.452 348.5 -999 34 -999
2007-04-20 08:37:43 51°14.005 2°55.452 348.5 -999 41 -999
2007-04-20 08:37:48 51°14.005 2°55.452 348.5 -999 121 -999
2007-04-20 08:37:53 51°14.005 2°55.452 348.5 -999 281 -999
2007-04-20 08:37:58 51°14.005 2°55.452 348.5 -999 155 -999
2007-04-20 08:38:03 51°14.005 2°55.452 348.5 -999 166 -999
2007-04-20 08:38:08 51°14.005 2°55.452 348.4 -999 317 -999
2007-04-20 08:38:13 51°14.005 2°55.452 348.4 -999 231 -999
2007-04-20 08:38:18 51°14.005 2°55.452 348.4 -999 80 -999
2007-04-20 08:38:23 51°14.005 2°55.452 348.4 -999 85 -999
2007-04-20 08:38:28 51°14.005 2°55.452 348.4 -999 114 -999
2007-04-20 08:38:33 51°14.005 2°55.452 348.4 -999 238 -999
2007-04-20 08:38:38 51°14.005 2°55.452 348.4 -999 343 -999
2007-04-20 08:38:43 51°14.005 2°55.452 348.4 -999 228 -999
2007-04-20 08:38:48 51°14.005 2°55.452 348.4 -999 199 -999
2007-04-20 08:38:53 51°14.005 2°55.452 348.4 -999 224 -999
2007-04-20 08:38:58 51°14.005 2°55.452 348.4 -999 192 -999
2007-04-20 08:39:03 51°14.005 2°55.452 348.4 0.1 218 -999
2007-04-20 08:39:08 51°14.005 2°55.452 348.4 0.1 6 -999
2007-04-20 08:39:13 51°14.005 2°55.452 348.4 0.1 38 -999
2007-04-20 08:39:18 51°14.005 2°55.452 348.4 0.1 72 -999
2007-04-20 08:39:23 51°14.005 2°55.452 348.4 -999 182 -999
2007-04-20 08:39:28 51°14.005 2°55.452 348.4 -999 131 -999
2007-04-20 08:39:33 51°14.005 2°55.452 348.4 -999 230 -999
2007-04-20 08:39:38 51°14.005 2°55.452 348.4 -999 186 -999
2007-04-20 08:39:43 51°14.005 2°55.452 348.4 -999 201 -999
2007-04-20 08:39:48 51°14.005 2°55.451 348.4 -999 200 -999
2007-04-20 08:39:53 51°14.005 2°55.451 348.3 -999 221 -999
2007-04-20 08:39:58 51°14.005 2°55.451 348.3 -999 250 -999
2007-04-20 08:40:03 51°14.005 2°55.451 348.3 -999 34 -999
2007-04-20 08:40:08 51°14.005 2°55.451 348.3 -999 345 -999
2007-04-20 08:40:13 51°14.005 2°55.451 348.3 -999 107 -999
2007-04-20 08:40:18 51°14.005 2°55.451 348.3 -999 224 -999
2007-04-20 08:40:23 51°14.005 2°55.451 348.3 -999 203 -999
2007-04-20 08:40:28 51°14.005 2°55.451 348.3 -999 230 -999
2007-04-20 08:40:33 51°14.005 2°55.451 348.3 -999 345 -999
2007-04-20 08:40:38 51°14.005 2°55.451 348.3 -999 85 -999
2007-04-20 08:40:43 51°14.005 2°55.451 348.3 -999 27 -999
2007-04-20 08:40:48 51°14.005 2°55.451 348.3 -999 233 -999
2007-04-20 08:40:53 51°14.006 2°55.451 348.3 -999 227 -999
2007-04-20 08:40:58 51°14.006 2°55.451 348.3 0.1 14 -999
2007-04-20 08:41:03 51°14.006 2°55.451 348.3 -999 117 -999
2007-04-20 08:41:08 51°14.006 2°55.452 348.3 0.1 44 -999
2007-04-20 08:41:13 51°14.006 2°55.452 348.3 -999 174 -999
2007-04-20 08:41:18 51°14.006 2°55.452 348.3 -999 203 -999
2007-04-20 08:41:23 51°14.006 2°55.452 348.3 -999 207 -999
2007-04-20 08:41:28 51°14.006 2°55.452 348.3 -999 33 -999
2007-04-20 08:41:33 51°14.006 2°55.452 348.3 -999 62 -999
2007-04-20 08:41:38 51°14.006 2°55.452 348.3 -999 229 -999
2007-04-20 08:41:43 51°14.006 2°55.452 348.3 -999 85 -999